Regional Weather Roundup
Issued by NWS

Home | Current Version | Previous Version | Text Only | Print | Product List | Glossary Off
Versions: 1 2 3 4 5 6 7 8 9 10 11 12 13 14 15 16 17 18 19 20 21 22 23 24 25 26 27 28 29 30 31 32 33 34 35 36 37 38 39 40 41 42 43 44 45 46 47 48 49 50

000
ASUS43 KBIS 261002
RWRND

NORTH DAKOTA REGIONAL WEATHER ROUNDUP
NATIONAL WEATHER SERVICE BISMARCK ND
500 AM CDT THU MAY 26 2016

NOTE: "FAIR" INDICATES FEW OR NO CLOUDS BELOW 12,000 FEET WITH NO
SIGNIFICANT WEATHER AND/OR OBSTRUCTIONS TO VISIBILITY.


NDZ001>003-009>011-017-261100-
NORTHWEST NORTH DAKOTA

CITY           SKY/WX    TMP DP  RH WIND       PRES   REMARKS
WILLISTON      FOG       47  46  97 NW6       29.80F VSB 3/4
MINOT          CLOUDY    58  55  90 SW8       29.74R
MINOT AFB      CLOUDY    55  54  94 W7        29.73S FOG
$$

NDZ018>021-031>035-040>046-261100-
SOUTHWEST NORTH DAKOTA

CITY           SKY/WX    TMP DP  RH WIND       PRES   REMARKS
BISMARCK       CLEAR     46  45  96 SW3       29.80S
DICKINSON      CLEAR     42  38  85 W3        29.81R
GARRISON         N/A     51  49  92 W10       29.77S
HETTINGER ARPT CLOUDY    36  34  92 NW5       29.86S
$$

NDZ004>008-012>016-024-026-027-054-261100-
NORTHEAST NORTH DAKOTA

CITY           SKY/WX    TMP DP  RH WIND       PRES   REMARKS
GRAND FORKS    CLOUDY    57  55  93 S8        29.71R
GRND FRKS AFB  CLOUDY    56  56  99 S5        29.71R
DEVILS LAKE    CLOUDY    55  54  96 W7        29.74S
$$

NDZ022-023-025-028>030-036>039-047>053-261100-
SOUTHEAST NORTH DAKOTA

CITY           SKY/WX    TMP DP  RH WIND       PRES   REMARKS
FARGO          PTCLDY    51  49  92 W6        29.73F FOG
JAMESTOWN      MOCLDY    55  53  93 W9        29.73S
$$





USA.gov is the U.S. government's official web portal to all federal, state and local government web resources and services.